RH
43 38 37 38 39 39 42 44 45 46 46 47 47 46 46 47 46 46 46 46 46 45 43 41 39 37 36 35 34 33 33 33 31 29 28 27 27 27 27 27 28 29 29 29 25 18 15 15 19 20 19 19 17 14 12 13 19 24 24 24 25 24 21 22 25 21 18 21 20 14 9 8 10 17 23 30 40 47 49 46 44 44 42 42 42
47 44 39 38 39 40 44 48 50 50 48 48 48 47 48 49 49 49 49 49 48 47 45 42 41 40 38 37 36 36 36 35 33 30 29 30 28 28 28 29 31 31 32 31 26 19 16 17 20 21 20 20 17 12 10 14 22 26 25 24 26 26 24 27 28 21 20 30 33 30 24 17 19 25 25 32 43 42 40 42 41 43 43 41 40
53 49 45 40 38 38 40 46 52 54 53 52 51 51 51 52 51 51 51 51 51 49 47 44 43 41 40 39 38 38 38 36 35 34 33 32 29 28 29 31 32 33 34 32 27 21 19 20 22 23 23 23 21 15 11 15 22 24 26 27 26 24 23 28 31 24 23 33 40 47 50 37 27 31 31 28 29 26 29 38 38 37 39 37 35
56 53 50 44 41 40 38 40 46 51 54 55 55 55 54 53 53 53 54 54 54 52 50 47 45 43 41 41 40 39 40 38 37 38 36 33 30 28 29 30 32 33 34 32 28 25 22 23 25 25 26 26 25 19 12 19 29 28 28 30 28 28 29 29 27 21 24 40 49 49 56 57 44 44 42 24 18 25 32 35 31 30 33 32 29
55 54 52 49 45 43 39 38 41 44 49 52 54 56 55 54 54 55 57 57 57 56 53 49 46 44 42 41 41 40 40 40 39 40 38 34 30 28 29 30 31 31 31 31 30 28 25 25 26 27 28 28 28 24 17 24 34 31 31 33 29 34 43 37 25 23 27 36 47 47 56 73 66 54 43 25 24 33 31 27 25 27 27 24 24
56 54 51 51 48 45 42 40 41 41 42 44 47 50 52 53 54 57 60 60 59 58 56 52 47 45 43 41 41 40 40 41 42 42 40 37 31 28 28 28 27 27 28 31 33 31 27 25 26 27 29 30 31 29 22 26 35 34 34 34 28 32 42 37 26 30 32 30 45 50 50 65 67 60 54 40 32 26 21 25 25 23 24 23 22
55 55 52 51 49 48 46 42 42 40 37 38 42 45 46 48 50 54 58 61 62 61 58 54 50 47 44 43 43 42 43 43 43 43 42 39 31 25 23 23 24 27 30 33 35 32 28 25 26 28 30 31 33 31 26 29 38 40 36 32 30 31 35 38 37 39 37 35 48 49 39 46 51 58 66 57 46 37 28 28 23 22 28 28 24
53 54 52 52 50 49 47 42 40 37 34 36 39 41 41 44 46 48 52 57 61 63 62 57 52 49 46 45 44 43 44 45 44 44 42 38 31 24 21 22 26 30 33 36 35 32 29 27 27 29 30 31 33 32 29 31 40 44 40 33 31 32 34 41 46 46 46 45 49 46 41 44 44 49 56 56 64 66 48 34 31 33 33 30 31
52 51 49 49 48 47 45 42 39 37 36 37 37 38 40 42 45 47 50 52 56 63 65 61 55 51 48 45 45 44 45 46 44 43 42 38 32 26 22 23 28 31 34 36 35 32 30 27 27 28 29 31 32 33 30 29 35 41 39 34 33 35 36 42 46 49 53 52 49 48 47 48 44 45 50 53 67 75 64 52 49 48 42 37 37
52 51 48 46 46 45 44 43 40 38 38 38 37 39 41 44 47 50 50 51 54 60 65 65 59 53 50 47 46 45 45 45 44 42 42 40 33 27 22 19 23 27 31 34 34 32 30 27 26 27 28 30 31 32 30 26 28 34 35 34 37 38 37 43 50 53 53 49 46 47 49 52 51 50 54 56 61 68 70 62 56 55 53 49 43
56 55 51 47 46 45 45 45 42 40 41 42 41 41 43 45 48 50 50 51 54 57 63 67 63 56 53 50 48 47 47 45 43 42 42 40 36 31 24 18 17 21 27 33 34 33 32 29 27 27 28 30 30 30 31 28 26 30 34 36 39 42 41 44 49 50 48 46 46 45 48 53 57 59 58 56 59 66 67 62 57 56 56 53 49
63 63 59 55 54 51 50 49 45 44 45 45 43 44 46 46 49 52 50 50 54 58 63 67 66 61 56 53 50 49 47 45 44 44 44 42 39 34 27 19 15 20 29 34 35 34 33 31 30 29 28 29 30 31 32 30 27 30 35 39 41 43 44 44 46 47 46 47 47 46 49 53 55 56 55 53 57 60 63 67 64 59 61 60 56
69 70 68 65 63 59 57 54 51 51 49 48 46 47 49 49 52 56 51 48 53 59 64 67 67 65 60 57 54 51 48 46 45 44 44 43 41 35 28 21 17 21 29 32 34 34 34 34 32 31 29 29 30 32 32 31 30 33 37 41 43 43 43 45 47 48 48 48 48 48 50 51 49 50 52 56 58 56 61 73 73 66 70 69 61
75 75 74 71 68 63 61 60 58 56 52 51 51 50 52 53 55 58 53 49 55 61 64 68 68 66 64 61 57 53 50 47 46 44 44 43 41 36 30 25 21 20 23 25 30 35 35 35 34 32 31 30 31 32 33 33 32 35 40 43 44 43 44 47 48 48 48 48 49 50 49 49 49 49 51 54 57 58 62 74 79 75 71 67 63
78 79 77 73 68 65 64 63 60 59 56 55 55 54 55 56 57 59 56 51 55 61 65 68 68 66 66 64 60 56 52 49 46 43 43 43 40 36 31 27 23 21 20 22 30 36 37 37 35 35 34 33 33 33 34 34 33 36 42 46 45 44 45 47 47 48 49 49 49 50 50 50 50 49 51 53 57 65 67 66 71 80 81 71 63
77 79 78 72 66 64 63 62 59 59 59 59 59 57 58 58 58 60 58 54 56 62 64 65 65 67 69 67 62 58 53 49 47 45 44 42 40 37 32 29 26 24 21 24 32 38 38 39 38 38 36 35 34 35 36 36 34 38 44 46 46 46 47 47 47 47 49 51 50 51 52 52 52 52 54 56 58 62 62 57 61 78 91 88 77
74 76 75 70 65 61 58 56 56 57 58 58 58 59 61 61 61 62 61 60 61 63 63 64 67 70 71 69 65 61 56 52 50 49 44 39 39 38 34 31 30 27 25 26 33 38 39 41 41 40 37 36 36 37 38 37 36 41 45 47 47 48 49 49 47 49 50 51 52 52 54 54 55 55 54 56 56 57 57 58 63 71 83 93 95
72 73 70 66 62 57 53 50 52 53 54 56 56 58 62 63 64 64 64 64 64 64 66 69 71 73 72 70 68 63 59 56 54 50 44 39 39 39 36 35 35 33 30 30 35 39 41 42 42 40 38 37 39 39 40 39 39 43 46 48 50 50 51 49 47 49 50 52 54 55 57 58 58 57 57 59 59 61 60 60 63 65 71 85 94
68 68 66 63 55 51 49 46 47 49 52 56 57 60 64 67 69 70 70 69 68 70 72 73 74 75 73 71 69 65 62 59 53 47 43 39 40 42 40 41 43 42 38 36 37 39 41 42 41 41 39 40 41 41 42 41 40 45 48 50 52 51 52 52 49 52 54 56 60 60 61 61 59 58 60 62 63 64 64 64 66 67 70 78 84
64 62 62 57 49 45 46 47 51 53 56 59 60 63 65 67 70 72 74 75 75 77 77 78 78 76 75 72 68 66 62 56 50 45 41 37 41 46 45 47 52 51 45 41 40 39 41 42 41 41 42 42 43 43 43 42 42 47 50 51 52 52 55 56 55 57 60 62 64 64 64 61 59 61 65 68 69 68 68 69 72 73 75 79 82
58 57 56 50 46 46 48 51 55 55 57 58 58 61 62 63 66 68 71 74 77 78 79 82 82 79 79 76 71 69 64 58 51 45 42 40 43 48 50 54 58 56 51 46 43 41 40 41 41 42 44 44 45 45 44 43 45 50 52 53 54 55 57 61 62 63 64 65 66 68 69 64 62 68 71 70 69 66 67 71 76 80 82 83 86
54 53 51 48 48 51 52 54 56 56 59 59 60 62 62 63 64 65 69 72 75 78 79 82 83 83 83 80 77 74 68 63 55 46 44 45 48 51 56 62 64 61 57 50 44 41 40 42 43 44 45 45 46 46 45 45 48 51 54 54 55 58 61 63 65 66 65 66 69 72 73 66 62 69 71 67 64 63 68 75 78 82 87 88 91
51 49 47 49 50 53 56 58 60 61 62 62 62 63 62 61 61 60 61 63 64 67 70 74 78 81 82 81 80 75 67 62 54 46 46 48 51 57 64 69 70 66 59 51 45 43 41 43 45 45 46 47 47 47 46 47 50 53 56 57 58 61 65 67 68 69 69 70 73 75 74 67 64 71 71 66 66 68 72 79 79 81 88 92 92
50 49 50 53 54 58 63 63 65 64 62 63 63 63 63 62 62 60 60 59 59 60 61 63 66 70 74 76 77 76 67 57 49 48 51 53 59 68 73 75 74 67 59 51 47 44 43 44 46 46 47 47 47 48 49 50 52 55 56 58 61 64 68 71 71 72 73 74 76 77 73 67 69 75 74 68 70 74 76 81 84 85 90 96 98
53 55 57 60 62 66 67 64 65 64 63 65 64 64 63 61 59 58 60 62 65 67 67 66 66 66 69 71 74 74 63 50 48 52 55 61 69 76 78 77 74 66 56 50 46 44 45 46 46 47 47 48 49 50 52 54 55 56 58 59 62 66 69 72 73 75 77 77 78 75 67 63 68 74 75 75 78 81 83 87 90 91 94 99 101
60 63 67 69 69 68 65 63 65 64 65 66 65 64 62 59 59 62 66 71 71 70 68 66 64 63 64 66 66 63 54 48 52 57 63 71 78 80 80 78 71 61 53 48 46 45 46 47 47 48 49 50 51 53 55 57 57 59 60 60 60 61 62 66 68 68 67 65 64 63 61 64 72 80 83 85 86 87 89 91 92 92 94 98 100
67 72 73 72 69 65 62 64 64 64 67 69 67 66 64 65 70 73 74 74 70 65 61 57 55 56 59 60 57 55 52 54 59 65 73 79 81 81 80 74 66 57 51 48 47 47 48 48 49 50 51 53 55 57 58 59 60 60 60 58 55 54 54 54 54 54 55 59 63 67 72 78 85 89 90 88 88 90 91 92 94 94 94 97 101
75 77 74 70 66 62 62 63 65 68 72 73 69 68 70 74 79 79 76 73 70 67 64 60 56 56 57 57 56 56 58 62 68 75 81 83 83 81 76 69 62 55 51 48 47 48 48 50 52 52 54 56 58 60 61 61 60 58 56 54 50 49 49 48 53 60 66 74 82 85 86 86 88 88 88 88 89 90 93 94 93 94 98 102 103
80 75 70 68 65 63 63 64 68 74 77 74 71 72 78 81 83 84 81 79 79 77 75 71 67 66 67 66 65 67 72 77 81 84 85 84 82 78 71 65 59 54 51 50 49 50 50 52 54 55 58 59 60 64 63 60 60 57 54 54 54 57 61 66 75 83 87 89 90 89 86 84 85 87 89 90 89 90 96 98 94 95 101 104 102
79 73 68 66 65 64 65 69 75 79 78 75 74 79 83 84 87 90 86 83 85 85 85 85 84 84 85 83 83 84 86 87 87 86 84 82 78 73 68 62 57 54 53 52 52 53 54 55 56 58 61 62 65 67 62 63 76 83 82 81 83 85 89 93 97 96 95 92 88 86 86 86 87 90 92 91 91 94 99 101 98 98 100 101 100
77 72 68 66 66 67 70 76 81 80 77 76 79 83 83 84 90 94 90 88 90 90 89 88 86 84 85 85 86 88 87 86 85 82 80 78 73 70 65 60 58 56 54 54 55 55 56 57 58 61 63 65 68 65 63 78 97 102 99 99 99 100 100 99 100 99 97 94 90 91 94 93 90 91 91 91 94 100 102 100 100 100 100 101 100
74 71 71 69 69 73 77 82 84 80 77 77 81 83 83 86 94 97 95 93 92 88 82 78 75 74 77 81 81 82 81 79 79 77 74 72 69 65 62 59 57 56 55 57 57 57 59 60 62 65 67 69 69 62 67 91 105 100 99 102 101 100 101 100 99 100 99 97 97 99 100 99 97 96 95 95 98 103 102 100 102 101 100 101 100
71 71 73 71 75 80 81 84 83 77 76 77 81 87 90 92 97 100 98 93 86 81 76 74 72 72 75 78 77 77 76 73 73 71 69 67 64 61 60 58 57 57 58 59 59 61 64 65 68 72 71 72 71 58 60 87 104 101 98 100 100 100 100 99 97 97 99 101 101 99 97 94 93 94 95 96 97 97 93 93 98 101 99 99 99
70 71 72 75 83 82 78 80 78 74 77 81 85 92 94 96 98 95 91 88 83 79 78 77 75 74 76 77 76 76 74 71 70 68 65 64 62 61 61 60 60 61 62 63 65 67 69 71 74 75 74 76 72 56 54 80 104 100 84 83 97 103 99 100 100 98 99 99 94 91 89 85 80 78 79 81 82 84 86 88 92 94 91 88 89
72 73 75 82 84 77 75 79 76 76 85 86 84 87 88 89 90 81 76 80 83 81 80 79 78 77 76 75 75 74 72 70 68 66 65 65 64 64 64 64 65 67 67 69 71 73 75 75 76 77 78 80 71 55 60 90 108 95 72 74 96 104 99 100 102 99 99 99 94 91 90 88 86 81 77 81 87 89 91 93 93 91 89 88 89
73 77 83 86 78 72 77 79 75 81 89 83 79 84 86 84 79 68 67 76 82 81 81 81 80 78 77 76 75 74 72 72 70 69 69 68 68 69 70 70 72 73 74 76 77 77 79 77 78 80 82 80 68 51 60 92 108 92 76 81 98 103 100 100 101 99 101 100 93 88 90 93 96 93 87 92 100 99 97 98 99 97 97 97 94
74 80 84 80 71 72 78 76 76 87 90 80 76 78 79 81 77 71 75 82 83 83 83 82 81 79 78 77 77 76 76 76 75 75 75 75 75 76 76 77 79 79 80 81 80 81 81 81 82 83 82 81 70 49 53 87 106 95 86 94 101 100 99 100 100 99 97 92 82 78 84 92 96 93 89 93 101 102 101 102 102 101 100 98 96
79 82 79 73 71 77 79 77 84 93 90 81 76 71 71 76 80 83 89 91 89 88 87 84 83 82 81 81 81 81 81 80 80 80 80 81 81 81 82 82 83 84 84 83 83 84 84 84 85 84 84 86 79 61 59 84 105 101 95 100 102 99 100 101 100 100 98 91 81 76 82 92 96 91 89 96 102 101 101 102 102 101 101 100 98
82 79 74 73 76 81 79 79 91 97 90 83 81 76 74 80 87 92 94 94 94 94 91 89 88 86 85 85 85 85 86 85 86 85 85 86 86 85 86 85 84 86 86 85 86 87 87 87 88 88 90 93 93 79 62 67 90 102 100 99 100 99 100 101 99 100 101 96 89 86 88 94 100 98 95 100 100 96 98 101 100 101 104 102 96
80 73 71 72 75 82 84 88 98 102 94 88 85 82 82 89 94 96 95 95 96 95 93 93 93 91 91 91 90 90 90 90 91 92 92 92 91 90 90 89 88 89 89 90 91 92 93 93 93 95 97 97 97 87 63 54 78 103 103 98 101 101 99 100 101 100 100 98 95 93 90 88 93 97 96 94 92 92 95 97 97 102 104 99 94
75 69 75 77 76 83 91 95 98 98 96 93 90 87 90 96 100 100 100 100 97 93 93 95 95 96 96 94 92 91 91 92 93 95 96 96 96 96 96 95 95 95 95 96 97 98 100 100 97 98 99 94 91 84 66 52 67 96 105 99 99 101 99 99 101 100 100 100 98 94 89 87 93 97 94 91 93 93 91 89 92 95 93 93 98
70 69 81 84 80 88 96 93 88 88 92 96 93 91 95 99 100 101 102 102 99 95 95 96 95 95 95 92 91 90 89 91 93 96 100 100 99 100 100 100 101 101 101 102 102 102 104 103 98 96 93 87 81 76 69 56 53 73 98 104 100 101 102 101 100 101 100 99 99 96 93 94 99 102 98 95 94 90 85 87 91 91 90 96 101
71 77 87 86 85 94 98 91 85 86 89 92 91 93 97 98 96 97 97 97 95 93 92 90 88 88 87 86 87 88 87 89 91 95 100 101 99 100 101 101 103 104 104 103 102 102 103 101 97 91 84 77 70 65 66 64 54 59 85 101 97 90 90 93 98 101 100 100 101 101 100 100 101 98 92 88 88 89 91 96 99 99 99 98 91
76 85 92 88 88 97 98 91 89 89 89 89 89 93 96 92 89 91 91 90 89 86 84 83 81 81 82 83 86 87 88 90 91 93 99 100 98 99 99 99 101 104 104 102 99 99 102 101 99 93 80 68 64 62 62 65 64 63 74 86 83 72 71 84 99 104 99 97 97 90 82 82 87 89 90 92 92 92 94 98 100 100 95 86 78
82 88 93 89 89 96 98 94 89 88 90 92 93 96 97 91 87 89 91 91 91 88 84 80 77 78 80 81 84 84 85 88 89 92 97 98 97 100 100 99 101 105 104 102 100 101 102 102 102 100 86 69 64 66 65 66 70 72 74 77 74 64 61 72 85 85 78 79 82 76 68 72 83 89 88 83 75 71 77 88 96 97 91 83 81
87 91 94 92 90 93 98 97 90 85 89 95 96 98 100 94 88 89 92 94 95 92 85 78 74 75 75 77 80 79 78 81 84 87 93 97 98 101 102 100 103 106 105 104 103 103 103 103 102 100 92 80 72 71 71 72 74 77 77 74 68 61 57 61 69 70 68 71 76 73 70 73 77 78 74 70 70 76 84 90 93 94 92 90 86
91 94 95 95 93 93 97 100 94 85 88 93 91 90 92 90 86 88 92 94 92 88 82 77 75 75 75 76 80 80 79 80 82 84 89 91 94 99 104 103 103 105 106 107 106 104 104 105 103 98 92 88 82 79 79 80 78 79 77 71 66 65 69 73 78 79 78 78 77 74 72 73 74 77 81 84 90 96 98 95 95 97 96 92 83
91 94 95 97 96 94 98 101 95 88 89 92 87 82 82 82 81 83 87 88 85 83 82 81 80 80 80 82 85 86 86 86 85 87 91 92 92 96 101 100 98 100 104 105 104 104 103 100 99 98 95 95 94 90 86 84 81 79 78 77 78 82 86 89 89 85 81 80 81 82 81 81 83 86 86 84 85 90 94 97 100 100 95 86 78
89 92 95 98 95 94 99 99 92 88 91 91 84 77 76 77 77 78 82 83 84 87 89 89 89 90 90 92 92 91 92 93 92 91 91 91 92 95 98 97 94 97 102 102 100 100 100 97 97 98 99 102 103 96 89 88 89 89 90 93 95 97 98 98 96 92 89 90 93 94 93 91 92 92 91 89 89 92 95 99 100 95 88 81 76
89 91 95 95 92 94 99 97 89 88 92 90 83 76 75 77 78 79 82 86 90 97 99 98 98 99 99 100 99 95 94 96 97 96 94 90 86 88 97 103 101 99 100 101 101 101 100 99 101 101 101 103 102 97 93 96 100 99 98 101 102 101 100 99 97 97 98 100 100 101 100 99 98 99 100 99 99 100 99 97 94 88 82 80 80
92 94 95 94 90 92 98 96 89 87 91 90 84 77 76 80 82 85 90 95 99 103 103 102 102 101 101 102 102 98 95 95 96 98 100 99 92 84 84 91 100 104 103 100 100 101 100 100 101 101 101 101 101 100 99 100 100 100 98 98 99 99 97 96 97 99 101 102 102 101 100 101 100 100 102 102 101 100 97 91 86 83 81 83 85
Wind_Speed
15 15 16 17 17 17 17 17 17 18 18 18 18 18 17 17 16 15 15 14 13 12 11 11 11 10 10 10 10 9 10 10 11 12 14 14 16 17 18 18 19 19 19 19 19 18 18 18 18 17 17 17 16 15 14 13 12 13 13 12 13 14 14 14 15 17 19 19 19 22 22 20 16 11 8 7 7 6 5 6 6 5 6 6 7
12 15 17 19 19 19 19 19 20 20 21 21 21 20 19 19 19 17 16 16 15 14 14 13 12 12 12 11 11 11 10 10 10 11 13 15 16 17 18 18 19 19 19 19 19 18 17 17 17 17 17 17 16 14 13 12 11 11 12 12 10 11 11 10 12 12 11 12 13 15 17 13 6 4 6 5 3 4 6 5 4 4 5 6 7
9 13 17 21 22 22 22 23 24 24 23 23 23 23 22 23 22 20 19 18 17 17 16 15 14 14 14 13 12 12 11 11 11 12 13 15 17 17 18 19 19 19 19 19 18 17 17 16 16 16 17 17 16 14 13 12 12 11 11 11 10 10 9 6 7 8 8 10 9 6 6 6 3 4 6 6 6 8 7 3 3 5 6 8 8
9 11 16 21 23 24 26 28 28 27 27 28 27 26 26 26 25 24 22 21 20 20 19 18 17 16 16 14 14 14 13 12 13 14 14 16 17 18 19 19 20 20 20 20 18 17 16 15 15 16 16 17 16 14 13 11 11 11 10 10 9 10 9 5 6 8 6 6 4 3 2 3 2 4 9 13 12 6 3 2 5 6 6 9 10
9 10 13 19 22 26 30 31 31 31 33 33 32 31 31 30 29 27 25 24 23 22 21 20 19 18 17 16 16 16 15 15 15 15 15 15 17 18 19 19 20 21 21 20 19 17 16 15 15 15 16 16 15 13 12 11 11 10 9 10 8 7 8 7 7 7 5 2 0 1 2 1 2 5 11 11 8 4 6 7 6 6 9 12 13
10 12 14 18 23 27 29 31 32 34 37 38 36 35 34 33 32 30 28 27 27 26 24 23 22 21 19 19 19 19 18 18 18 17 16 16 17 17 18 20 20 21 21 20 19 18 17 16 15 15 16 15 14 13 12 11 11 10 9 10 8 5 7 8 7 7 5 0 1 1 1 2 3 6 6 3 7 11 10 6 7 11 14 14 15
10 14 16 20 23 25 28 32 34 37 39 39 38 38 37 36 35 34 33 31 30 29 27 26 26 24 23 23 22 22 22 22 20 18 18 17 17 18 19 20 20 20 20 20 19 18 17 16 16 16 16 15 14 13 12 11 11 10 10 10 9 7 7 7 6 7 6 1 1 3 4 4 4 4 1 2 7 8 7 10 15 17 16 16 17
9 11 15 21 25 26 30 34 35 38 39 38 38 39 39 39 39 38 36 35 35 32 30 30 29 29 27 26 26 25 26 25 22 19 19 18 18 19 19 19 20 20 20 20 20 19 17 16 16 15 16 15 14 14 13 13 12 12 12 11 10 8 7 7 6 6 6 5 6 5 4 5 5 4 4 5 3 4 9 13 16 18 19 19 17
11 12 15 21 26 30 33 35 36 38 38 38 38 39 39 40 40 39 39 40 38 36 34 33 33 32 30 29 29 29 28 26 23 21 20 20 19 19 19 20 20 21 21 21 20 19 18 17 16 15 16 15 14 14 14 14 14 13 13 12 11 9 7 7 6 6 6 6 7 6 5 6 7 5 5 5 4 5 7 5 10 17 20 19 18
12 15 20 25 28 32 32 33 36 38 38 38 38 39 39 40 40 40 42 43 42 40 38 37 36 35 34 33 33 32 31 28 25 24 23 21 21 21 21 22 22 23 23 22 21 20 18 17 16 16 16 15 15 15 15 15 15 14 14 13 12 11 9 7 6 6 7 7 7 6 6 6 5 3 2 4 4 5 6 5 8 12 13 17 20
10 13 20 27 29 30 29 30 37 39 37 36 38 40 40 41 41 41 44 44 44 43 41 40 39 38 38 38 37 36 34 31 29 28 27 25 24 24 23 23 24 25 24 23 22 21 19 18 17 16 16 16 16 16 16 16 16 15 14 13 12 11 10 9 9 8 8 8 8 7 6 4 3 2 3 6 5 4 6 6 7 11 13 16 16
8 8 15 21 24 26 27 30 37 38 35 36 39 40 40 41 41 41 44 45 45 44 43 43 42 41 42 42 41 40 37 34 33 33 31 28 27 25 23 24 25 25 25 24 23 22 20 19 18 17 16 16 16 16 17 17 16 15 14 13 13 12 12 11 11 10 9 10 9 8 7 6 6 6 6 7 6 7 8 6 8 12 12 13 15
8 7 10 14 18 23 26 29 34 35 35 38 40 40 39 41 41 41 45 47 46 44 44 44 44 44 46 45 44 43 40 38 37 36 35 32 29 27 25 25 26 26 26 25 25 23 22 20 19 18 17 16 16 16 17 16 16 15 14 13 13 13 13 12 11 11 11 11 10 10 9 9 9 8 7 7 8 9 10 7 9 10 9 13 17
7 7 7 11 17 23 25 27 30 32 36 38 38 38 38 39 39 41 45 47 44 43 44 44 45 47 48 47 46 44 42 41 40 39 37 34 31 29 27 26 26 27 27 26 25 23 22 21 20 19 17 16 16 16 16 16 15 15 14 14 14 14 14 13 13 13 12 12 11 11 11 11 10 9 8 8 8 9 9 8 9 9 10 13 14
6 6 8 14 20 23 24 26 29 32 35 36 36 37 37 38 40 40 44 47 45 44 44 44 47 49 48 47 47 45 44 42 41 40 39 37 34 30 28 27 26 26 25 24 23 22 21 21 20 19 17 16 16 15 15 15 15 15 14 15 15 15 15 15 15 14 14 13 12 12 12 12 11 10 9 9 8 8 8 9 8 7 7 8 8
6 6 8 14 21 23 24 27 30 32 33 34 35 36 35 37 39 39 43 46 44 43 43 46 48 48 46 46 46 45 44 42 42 43 43 40 35 30 28 27 26 25 24 22 22 21 21 21 20 19 17 16 15 14 14 14 14 14 14 15 16 16 16 16 16 15 15 14 14 13 13 12 12 10 10 9 9 9 9 10 9 6 5 5 5
6 6 8 13 19 22 24 27 29 31 31 33 34 35 34 35 37 39 42 44 43 43 45 46 46 45 45 45 45 45 44 45 46 46 43 38 33 30 29 27 25 24 23 22 22 22 21 21 20 19 18 16 15 13 13 13 13 14 15 16 16 16 17 18 17 16 16 15 15 14 13 13 13 12 13 12 12 12 11 10 9 8 7 5 4
7 7 9 14 17 20 24 26 27 28 30 31 33 33 33 33 35 37 39 41 43 43 43 43 42 42 44 45 45 46 47 49 49 46 41 36 33 32 30 27 25 24 23 22 22 21 21 20 20 19 18 16 14 13 13 13 13 14 15 15 16 17 18 18 18 17 16 15 15 14 14 14 14 14 14 14 13 13 12 12 11 11 11 9 6
6 6 7 11 16 19 22 24 26 28 28 29 31 31 31 31 32 34 36 39 41 41 40 40 40 41 43 45 46 46 48 49 48 44 40 37 35 33 30 27 25 23 22 22 21 20 19 19 19 19 18 17 15 13 12 12 13 14 14 15 16 17 18 18 17 16 16 15 15 15 15 16 16 15 15 14 14 14 13 13 13 12 13 13 12
6 6 6 10 15 19 21 23 25 26 26 27 27 28 28 29 29 30 33 36 37 38 39 39 40 40 42 43 43 44 45 44 41 39 38 38 36 32 28 25 24 23 22 20 19 18 18 18 19 19 18 17 15 13 12 12 13 13 14 15 16 17 17 17 17 16 15 15 16 17 17 17 16 16 15 15 15 15 15 14 14 14 14 14 15
6 6 6 10 15 19 21 23 24 25 25 26 26 26 27 27 28 29 31 32 34 36 37 38 39 39 40 41 42 43 43 40 38 37 37 36 33 28 24 23 23 22 20 19 17 16 17 18 18 18 18 18 16 13 11 12 13 14 15 16 16 17 17 16 16 17 17 17 17 17 18 17 16 16 16 17 17 17 17 16 16 16 16 15 15
6 5 7 11 15 18 20 22 23 24 25 26 27 27 28 29 30 30 30 31 32 33 34 35 36 37 38 40 42 44 42 40 38 35 33 31 28 24 21 21 21 21 20 19 17 15 16 18 18 18 19 19 17 14 12 11 13 14 15 16 16 16 17 17 17 17 18 17 17 17 18 18 17 17 18 18 19 18 18 18 17 17 17 16 15
6 7 9 12 15 17 19 21 23 24 25 27 27 28 29 30 32 33 34 34 34 35 35 35 35 36 38 40 42 43 40 36 32 28 26 26 23 20 19 20 21 21 20 18 16 15 16 17 18 19 19 19 17 15 13 12 13 14 15 16 17 17 17 18 18 18 18 18 18 18 19 19 19 19 19 19 19 19 18 18 19 18 18 18 17
7 7 9 13 15 18 20 22 23 24 25 26 27 29 30 31 32 34 36 36 37 37 37 36 35 35 36 37 39 38 34 28 24 22 22 20 18 17 18 20 21 21 19 17 15 14 16 18 18 19 19 19 18 16 14 13 13 14 15 17 17 18 18 19 19 19 19 18 19 19 20 20 19 19 20 20 19 18 18 17 18 18 17 18 17
6 6 8 11 14 17 19 20 21 23 25 26 27 28 29 30 32 34 35 37 37 37 37 37 36 36 36 36 35 31 25 20 20 19 18 16 15 16 18 19 20 20 18 15 14 15 17 18 19 20 19 18 18 17 16 14 14 15 16 17 18 19 20 20 20 20 20 20 20 21 22 21 20 20 20 20 18 18 18 18 18 18 18 17 15
5 5 7 9 12 15 17 19 21 22 24 25 26 27 29 30 32 33 33 34 35 35 35 35 33 32 31 29 23 17 12 12 14 14 13 13 14 16 18 19 19 18 16 14 14 16 18 19 20 19 18 18 17 17 16 16 15 16 17 18 19 20 21 21 21 21 21 22 22 22 21 20 19 20 20 19 18 18 18 19 20 20 20 19 18
5 6 7 8 10 13 16 18 20 21 23 24 25 26 28 29 30 31 30 30 30 30 30 29 27 25 22 18 12 6 3 6 7 8 9 11 13 15 17 17 17 16 15 14 16 18 19 20 19 18 17 17 17 17 17 17 17 17 18 19 20 21 22 22 22 21 20 20 19 19 19 18 18 19 19 19 19 19 20 21 22 22 22 21 21
5 6 8 8 8 11 15 18 19 21 22 22 24 24 25 26 26 27 27 26 26 27 27 26 24 21 19 15 11 6 2 3 5 7 9 12 13 15 15 15 15 15 15 15 17 19 19 19 18 17 17 17 17 17 18 19 19 19 20 21 21 21 21 20 20 19 18 17 17 17 17 18 18 19 19 19 19 20 22 23 23 23 23 23 22
6 7 7 7 7 10 14 17 18 19 20 22 23 23 24 24 23 22 23 24 24 25 25 24 21 19 17 14 10 6 3 3 6 8 10 12 13 14 14 14 14 14 15 16 17 18 18 17 17 16 17 17 18 18 19 20 21 20 20 21 21 20 20 20 20 19 19 19 19 19 19 19 19 19 19 19 20 21 23 24 24 24 23 22 22
6 6 7 6 8 11 14 16 16 17 20 22 22 22 23 23 22 21 22 24 24 23 22 21 19 17 16 14 12 10 9 9 9 10 10 11 12 12 13 13 14 15 15 16 17 17 16 16 16 16 17 18 18 19 21 21 19 19 20 21 21 21 21 21 21 21 21 22 22 22 21 20 20 19 19 20 22 22 23 24 24 24 24 24 24
5 5 6 6 8 11 13 14 15 17 20 21 21 21 22 21 20 19 22 24 23 22 21 20 19 19 18 17 16 14 13 12 11 10 10 10 11 11 12 12 13 14 15 15 15 16 16 16 17 17 18 19 20 21 21 20 18 18 19 20 21 22 23 23 23 23 24 25 25 25 24 22 20 19 21 23 23 23 23 24 25 25 26 26 27
5 5 6 6 7 9 11 13 15 18 20 21 21 21 21 20 20 21 23 23 21 21 20 20 20 20 19 18 16 15 13 12 11 11 10 10 10 11 11 12 13 13 14 14 15 15 16 17 18 19 20 20 22 22 21 19 19 20 20 21 21 21 21 22 22 22 23 24 24 23 21 19 18 19 22 24 24 24 24 25 25 25 26 26 27
5 5 6 6 7 9 12 14 16 17 19 19 20 20 20 21 21 22 22 21 19 19 18 18 19 18 18 18 16 14 13 12 11 10 10 10 10 10 11 12 13 13 14 15 15 16 17 18 18 19 20 21 22 22 21 19 20 21 21 22 22 22 22 22 21 21 21 19 18 18 20 21 22 24 25 25 25 26 26 26 26 26 26 27 27
4 5 6 7 8 10 13 14 15 16 17 18 19 19 19 19 19 19 19 19 18 18 17 17 17 17 16 16 15 14 13 12 11 11 10 10 11 11 12 13 14 14 15 16 16 17 17 18 19 20 20 21 22 22 21 20 20 22 22 22 22 22 21 20 20 20 20 19 19 20 22 24 26 26 26 25 25 26 26 26 26 27 28 29 28
4 4 5 7 8 11 12 12 14 15 16 17 18 19 18 17 17 18 19 19 19 18 18 17 17 16 15 14 14 13 12 12 12 11 12 12 13 14 14 15 15 15 16 16 16 17 18 19 20 20 20 22 22 22 21 20 21 22 22 22 22 21 19 18 17 18 18 19 19 20 22 23 24 23 22 22 23 23 24 25 27 28 30 29 29
4 5 6 7 9 11 12 12 13 14 15 17 18 18 18 17 17 19 19 18 18 18 18 17 17 16 15 14 13 12 12 12 12 12 13 13 14 15 15 16 16 16 16 17 17 18 19 19 20 20 21 22 23 22 21 20 21 22 22 22 22 21 19 18 17 16 17 18 19 21 22 22 23 23 22 21 21 23 24 26 27 28 28 27 29
6 6 6 7 11 12 11 12 13 13 13 16 17 17 17 17 18 19 18 16 17 18 18 17 17 16 15 14 13 12 12 12 12 12 13 14 14 15 15 15 16 16 16 17 18 19 19 20 20 21 21 22 23 22 21 21 21 22 22 22 21 21 20 20 19 18 19 21 21 21 20 21 23 23 21 20 22 24 25 27 27 27 27 28 29
5 6 8 10 12 11 11 12 12 11 13 16 17 18 18 17 18 18 16 16 17 17 17 18 17 17 16 15 14 13 13 13 13 14 14 14 14 14 14 14 15 16 16 17 18 19 19 20 20 21 21 22 24 25 23 22 21 22 22 22 21 21 21 22 22 22 22 22 21 19 18 20 22 21 20 22 23 24 26 27 27 26 27 27 27
5 7 10 11 11 10 11 12 11 11 14 16 17 19 18 16 16 16 15 16 17 17 17 18 17 17 16 16 15 15 15 15 15 15 14 14 14 14 14 14 15 16 17 18 18 19 20 21 21 22 22 23 25 27 25 23 22 21 22 22 22 22 22 22 22 22 22 22 21 20 19 19 21 22 22 23 24 24 26 27 26 25 24 25 27
4 8 10 11 11 10 11 13 11 11 14 16 17 18 16 15 15 15 14 16 16 16 16 16 17 17 16 16 16 16 16 16 16 16 15 15 15 15 15 15 16 17 18 18 19 20 21 22 22 23 24 24 26 27 26 24 22 21 22 22 22 22 22 22 22 22 22 23 22 22 21 21 22 22 23 24 24 24 24 26 26 25 25 26 27
4 8 9 9 10 9 9 10 10 10 13 15 16 16 15 14 14 14 14 15 16 16 16 16 17 17 17 17 17 17 17 17 16 16 16 16 16 16 16 17 17 18 19 20 21 21 22 24 24 25 25 26 27 27 25 23 21 21 22 22 22 22 22 22 22 22 23 23 24 24 25 24 22 21 22 23 24 24 26 28 28 26 23 20 16
6 8 7 8 9 8 7 8 9 10 12 14 15 15 14 13 13 14 15 16 16 17 17 17 17 18 17 18 17 17 18 18 17 17 18 18 18 17 18 18 18 19 20 21 22 22 23 25 26 26 27 27 26 25 24 22 20 19 20 21 22 23 22 21 22 22 23 24 25 25 24 22 19 19 21 23 25 28 29 27 22 18 15 10 6
7 7 6 7 8 7 6 8 10 11 11 12 13 14 13 14 14 15 16 16 17 17 18 18 18 18 18 18 17 18 18 18 18 18 18 19 20 19 19 19 19 20 21 21 22 22 23 25 27 28 27 26 24 23 22 21 19 18 19 21 22 23 23 22 22 21 20 20 19 18 17 17 18 21 25 28 29 28 23 17 13 12 10 9 11
6 5 5 6 8 8 8 11 11 11 11 11 12 13 14 15 15 16 17 18 18 18 19 19 19 19 18 18 17 17 17 17 18 18 18 20 20 20 20 20 19 19 20 21 23 22 22 23 26 28 28 25 23 22 21 19 18 17 16 19 21 22 22 22 22 21 20 20 20 20 21 23 25 27 28 27 24 21 16 14 13 13 13 16 19
4 5 5 6 8 9 10 12 13 11 10 10 11 12 15 16 17 17 17 18 19 19 19 19 19 19 18 18 18 17 17 17 16 17 18 19 19 20 21 21 20 20 20 21 22 22 22 23 24 27 28 26 24 23 21 19 18 19 19 20 21 22 22 23 24 25 25 25 25 26 26 26 26 25 24 23 22 20 18 17 14 13 16 20 20
4 5 5 7 9 10 11 14 14 12 11 11 12 13 15 17 17 17 16 17 18 19 19 19 19 19 18 18 18 18 18 17 17 16 17 18 18 19 20 21 21 21 21 22 22 22 22 22 24 26 28 27 25 24 23 22 21 23 23 22 22 23 24 25 25 26 26 26 25 25 25 25 24 24 24 24 22 21 20 19 17 18 20 21 20
5 6 6 8 10 11 13 15 15 14 12 12 14 14 15 15 15 15 15 16 17 18 19 20 20 20 20 19 19 20 20 20 19 18 18 18 18 18 19 21 21 22 22 22 22 23 22 22 23 26 27 28 27 27 26 27 26 25 23 23 24 25 24 24 24 24 24 24 24 24 24 25 25 26 26 24 21 21 22 23 23 23 23 22 21
5 6 6 8 10 12 13 15 16 15 13 14 16 15 14 14 14 14 14 16 17 18 19 21 21 21 21 20 20 21 21 21 21 20 20 20 19 19 19 20 20 20 21 22 23 23 24 24 25 26 27 26 27 29 29 28 26 24 23 24 25 25 25 25 25 25 24 24 25 25 25 26 27 27 27 26 25 26 26 26 25 24 23 22 21
6 6 7 9 11 13 14 15 16 15 14 16 16 14 13 13 14 14 15 16 18 19 20 22 22 22 22 21 21 21 21 22 22 23 22 22 21 19 19 20 21 19 20 22 24 26 27 27 28 29 28 26 27 28 27 24 23 24 25 26 27 27 26 25 24 23 23 25 26 26 26 26 26 26 26 26 26 26 25 25 24 22 21 20 19
6 6 8 9 11 13 14 15 16 15 14 16 16 13 12 13 14 14 15 16 18 20 22 23 24 23 23 22 22 22 22 22 23 24 25 25 25 22 19 19 20 20 19 20 23 26 28 28 28 28 26 25 25 25 22 21 22 24 24 24 24 23 22 24 24 24 25 26 26 25 25 25 25 24 24 25 25 23 23 23 21 20 19 18 18
7 7 9 11 12 13 14 16 17 15 14 16 16 13 13 14 14 14 14 16 18 20 23 25 26 25 24 22 22 22 23 23 23 23 24 26 28 28 25 21 19 18 18 19 21 23 25 25 24 22 21 20 19 20 20 21 23 23 23 23 22 22 24 26 24 20 21 22 21 20 20 21 21 21 21 21 21 20 20 21 20 19 18 17 16
Wind_Direction
255 249 241 241 243 241 239 236 234 233 231 229 230 230 230 232 234 237 241 245 247 250 251 251 250 251 250 251 257 265 271 278 284 286 292 297 300 301 301 301 301 302 303 303 304 302 300 300 300 302 304 307 309 309 307 302 300 302 302 302 303 305 307 306 309 313 316 318 314 311 311 312 310 306 300 293 292 299 300 300 299 300 312 330 348
259 251 242 240 242 243 242 240 239 238 236 235 237 237 238 239 240 241 245 248 251 252 253 253 253 253 256 259 264 271 275 280 283 284 290 295 298 297 297 296 297 298 299 301 302 300 299 299 300 303 305 307 309 308 303 298 298 302 304 304 303 309 315 316 318 326 333 334 324 316 321 324 312 299 296 279 277 305 302 305 313 318 330 341 348
256 250 244 240 241 243 244 243 242 242 241 241 243 243 244 245 246 246 246 247 250 251 251 251 252 253 255 259 264 270 274 277 280 283 288 292 295 293 291 291 291 293 295 297 298 297 297 297 299 302 304 308 311 308 301 297 300 304 308 311 310 311 314 312 325 343 350 340 326 303 323 336 319 319 307 283 298 305 290 280 314 328 340 341 341
249 250 245 241 241 241 242 243 242 243 244 244 243 244 245 247 249 250 250 250 249 250 250 249 250 252 254 257 261 264 267 270 273 278 283 287 289 286 285 285 286 289 291 293 294 293 293 294 296 298 300 305 309 309 304 300 304 308 311 315 318 323 321 306 314 339 0 358 336 276 322 337 293 344 334 311 307 298 237 271 313 321 328 327 330
244 247 244 241 240 240 241 242 243 244 245 244 243 244 246 247 249 251 253 253 251 250 249 248 248 250 252 254 255 257 260 262 264 270 275 278 279 278 277 278 279 282 284 286 288 288 290 290 292 294 296 300 304 306 304 299 301 305 311 315 319 330 332 314 307 331 356 29 6 288 345 320 248 338 338 313 297 278 279 302 317 326 322 318 321
242 247 247 243 242 242 243 242 242 244 245 245 245 246 248 250 251 250 252 253 253 252 249 247 247 246 248 248 248 251 253 256 261 268 271 273 273 271 269 270 272 275 276 278 280 282 284 285 287 289 291 295 298 302 301 295 294 298 303 308 308 312 321 315 307 319 329 32 135 192 229 266 288 336 344 299 300 300 288 297 322 329 326 317 317
241 246 247 245 244 243 244 243 241 243 247 248 247 248 250 251 252 251 250 252 253 253 249 246 245 245 245 245 248 249 251 257 263 266 268 270 269 266 265 266 268 269 269 271 272 275 277 279 280 281 285 289 293 297 298 292 290 294 296 300 301 292 300 313 313 314 314 296 292 264 253 275 293 322 320 260 311 304 280 299 313 318 319 315 318
236 243 242 241 242 241 243 245 244 246 250 250 249 250 251 251 253 252 251 251 252 252 249 246 245 246 246 245 247 248 252 259 263 264 265 267 266 265 265 264 263 264 264 265 266 268 270 270 271 274 277 283 287 290 293 289 286 290 293 294 294 287 289 303 307 312 312 302 308 304 282 287 292 294 272 253 269 289 291 303 310 312 311 314 319
232 239 241 241 241 241 243 247 249 250 251 250 251 253 253 253 252 252 252 252 252 251 249 247 246 247 246 245 247 249 252 257 259 258 259 261 263 263 262 260 259 259 259 260 261 262 263 263 263 267 271 276 280 283 288 288 285 286 291 294 292 287 284 291 293 298 305 301 310 321 312 309 311 300 276 263 258 275 291 310 322 319 314 312 316
235 239 245 246 245 247 248 250 254 254 252 252 253 254 253 253 252 251 252 253 252 251 249 248 246 245 245 244 245 248 249 252 253 253 254 255 256 257 257 256 255 255 255 256 256 256 256 257 258 260 265 269 273 279 285 287 286 284 288 291 289 287 285 284 283 282 286 288 296 309 316 326 329 314 309 321 307 281 287 305 321 325 317 310 316
241 243 249 252 253 255 255 254 256 257 255 253 253 253 252 252 251 250 252 253 252 250 249 248 246 244 245 245 245 246 247 247 247 248 249 249 250 252 253 253 252 251 250 251 252 252 251 252 255 256 260 264 268 275 282 286 286 284 285 286 283 284 285 284 283 279 279 281 282 289 300 310 306 291 310 320 316 293 294 300 310 314 302 299 311
246 246 252 256 259 260 256 254 256 258 256 254 253 252 250 250 249 249 251 252 251 250 248 248 246 244 246 245 245 246 245 243 244 246 247 247 247 248 249 249 249 246 245 244 245 247 248 248 250 252 255 260 267 272 278 284 285 283 283 282 281 283 285 285 285 281 281 284 281 281 285 281 275 279 288 294 293 291 294 293 302 309 299 290 302
248 246 252 257 258 259 256 254 257 258 257 255 254 252 250 250 248 247 251 253 251 249 248 247 246 245 246 245 245 245 243 242 243 245 246 245 244 243 243 244 243 241 240 240 241 243 245 247 247 249 251 256 263 269 275 282 283 282 281 279 280 283 286 287 285 284 285 285 283 280 279 278 278 281 282 279 281 288 294 294 298 305 296 292 302
253 251 256 257 257 259 261 261 262 262 262 260 258 255 252 251 249 247 251 254 251 249 249 247 247 248 247 246 245 244 242 242 242 243 244 245 243 241 241 242 242 241 241 240 241 241 244 248 248 249 250 253 259 265 272 279 282 280 279 278 281 284 285 285 285 287 286 283 282 280 279 280 278 278 279 278 280 284 289 298 308 307 293 290 297
260 257 258 261 263 266 269 270 270 269 269 268 265 262 257 254 252 249 252 255 253 250 249 248 249 250 248 246 246 244 243 243 242 243 245 243 241 239 239 241 242 244 244 242 240 239 242 246 248 250 252 252 254 260 268 276 280 278 276 278 282 283 284 285 287 288 286 283 282 281 281 280 278 279 280 281 280 276 280 295 311 315 296 289 294
272 266 265 269 273 276 277 277 277 276 276 275 272 268 263 260 258 254 256 258 256 253 252 252 252 252 249 248 247 245 244 243 243 244 244 242 239 239 240 242 243 245 244 240 236 236 239 242 246 250 253 253 253 258 265 274 276 273 273 277 281 283 284 288 289 287 284 283 283 283 283 281 279 279 278 279 279 275 281 292 295 290 286 297 306
277 269 269 274 279 282 282 282 283 284 284 282 280 276 271 267 264 262 261 262 260 258 257 256 255 253 252 250 248 246 244 243 244 244 242 238 237 240 241 242 243 244 242 237 234 233 236 239 244 247 250 251 254 259 266 273 273 269 271 276 280 282 286 289 289 286 283 283 284 283 283 283 281 280 278 278 279 278 281 285 282 273 267 279 303
275 273 273 277 281 284 288 292 294 294 294 293 292 289 282 276 272 269 268 268 268 266 264 262 259 257 256 254 251 248 246 245 245 243 239 234 234 237 239 240 243 243 240 236 231 231 235 239 242 243 245 247 252 259 266 272 271 268 270 273 277 281 286 289 287 284 282 283 284 284 284 283 282 281 280 279 278 278 279 278 277 273 266 262 264
285 287 285 285 289 293 299 306 311 313 312 309 308 304 298 291 285 280 278 278 277 276 274 270 267 263 260 259 256 252 250 247 245 241 236 231 232 234 234 238 243 242 240 236 231 232 235 238 241 242 243 244 248 255 263 270 271 269 269 272 276 282 286 288 286 283 282 283 284 283 282 283 284 284 282 281 280 279 279 277 275 273 268 264 260
292 293 289 292 301 312 323 329 332 335 335 333 330 325 319 313 307 301 296 293 290 287 283 279 275 271 267 264 262 259 256 252 248 244 237 232 232 232 232 238 243 243 241 238 234 234 236 239 242 244 245 246 246 249 258 269 271 267 267 272 278 282 284 285 284 282 282 282 281 281 282 283 285 286 283 282 281 279 280 278 277 275 271 268 264
291 294 301 315 329 342 352 355 356 357 355 354 350 345 341 336 329 323 316 309 304 299 294 288 282 278 272 269 267 264 261 257 252 247 239 233 231 230 234 241 243 243 243 241 237 236 239 242 244 247 250 251 250 249 256 267 267 265 269 274 279 281 281 280 279 279 280 280 280 281 282 283 284 283 281 281 280 280 281 279 277 277 273 270 266
300 320 337 348 357 1 4 4 5 6 3 2 359 356 352 347 343 338 331 324 318 312 306 299 292 285 279 274 271 268 262 256 251 245 236 230 227 229 237 242 244 246 245 242 241 240 242 243 245 250 253 255 255 256 259 264 264 265 270 275 278 278 276 276 276 278 279 280 280 279 280 282 282 281 280 280 280 280 281 280 278 276 274 271 266
340 358 3 6 7 6 7 9 11 10 7 4 1 357 353 350 347 343 338 333 328 322 317 310 302 294 287 282 277 272 265 257 249 239 228 224 224 231 240 244 246 247 245 244 245 244 243 244 247 250 252 254 259 263 265 264 263 265 270 275 276 274 272 273 275 276 277 277 277 277 278 280 281 281 280 281 281 281 280 279 278 277 276 273 269
9 12 10 9 10 13 15 14 11 8 4 1 358 354 351 348 346 342 338 334 331 327 322 317 310 304 297 290 283 275 267 255 240 225 217 218 225 236 243 245 245 244 243 244 248 247 245 245 246 247 248 253 260 265 267 265 263 266 271 274 274 272 271 273 274 274 275 275 276 277 278 280 280 279 280 280 280 280 280 279 279 279 277 276 274
12 7 9 13 18 21 18 11 7 4 1 358 356 353 351 349 347 344 340 336 333 330 326 322 317 313 308 301 291 279 266 244 223 212 209 217 232 242 244 244 242 242 243 247 250 249 246 244 244 245 247 253 261 266 267 266 267 271 274 275 274 273 273 273 273 273 273 273 274 275 277 279 278 276 277 278 278 278 279 278 277 278 276 274 272
5 8 18 24 25 20 12 7 5 3 360 357 354 353 352 350 348 346 343 341 339 337 335 332 329 326 324 319 306 287 254 217 203 203 211 226 240 245 246 245 244 245 248 251 252 249 246 244 243 244 249 255 262 266 267 270 273 275 276 276 275 275 275 274 274 274 275 276 276 276 276 276 274 273 274 276 277 278 278 278 277 277 277 273 269
6 24 31 27 21 13 8 6 4 1 0 358 355 353 351 349 348 348 349 350 351 352 352 350 348 349 352 352 348 333 234 198 202 215 229 243 250 251 251 251 250 250 253 253 251 247 244 243 243 246 252 259 263 266 270 274 278 279 280 280 280 279 278 277 277 277 278 279 278 277 275 274 272 273 274 276 277 278 278 278 278 278 277 274 271
26 36 28 16 10 7 6 5 2 0 359 357 354 351 349 348 347 351 356 360 3 6 6 5 5 7 10 11 9 0 299 227 233 246 255 260 260 260 260 258 254 254 256 254 249 244 242 241 244 250 256 262 265 269 274 280 283 284 284 284 283 282 280 280 280 281 282 281 281 279 276 275 274 274 275 275 275 277 278 278 279 279 276 272 269
41 35 18 8 6 6 5 2 358 358 357 354 350 348 347 347 346 352 0 3 4 8 10 11 14 17 17 16 13 6 341 297 282 278 275 272 268 266 263 258 254 254 254 251 246 242 242 244 249 256 260 265 268 273 280 286 288 289 288 287 286 284 282 282 282 284 285 283 282 280 277 277 276 275 273 273 275 278 277 276 278 278 273 269 266
34 20 6 5 6 5 2 358 356 356 354 349 346 345 345 343 341 348 355 355 357 3 7 12 16 15 11 7 360 350 337 323 310 299 290 282 274 269 262 256 254 253 250 246 242 242 246 251 258 263 266 269 273 278 285 288 287 285 285 285 285 283 282 280 278 280 282 282 282 280 278 278 278 274 271 272 275 275 270 267 270 271 269 265 262
14 359 358 2 5 4 360 355 355 354 350 345 343 342 341 338 336 339 344 347 352 0 6 9 9 5 360 356 350 344 338 332 324 314 303 292 282 273 265 259 254 251 248 246 246 250 256 262 267 270 272 275 279 285 289 288 282 278 276 276 275 275 275 274 270 268 270 274 276 275 274 274 272 269 269 273 273 267 263 262 263 264 264 263 260
348 350 357 360 2 3 359 355 354 351 346 343 341 339 338 335 332 334 340 347 354 0 4 5 4 359 355 353 349 346 344 338 331 322 311 299 286 276 268 262 258 256 254 254 257 261 265 269 271 272 275 279 284 288 290 287 283 281 277 273 271 270 270 269 268 267 266 266 266 266 266 266 265 267 271 274 271 265 262 263 263 264 263 263 262
347 355 354 357 4 6 360 355 351 348 345 344 342 339 337 336 334 337 345 353 357 359 359 358 358 355 352 351 349 348 346 341 335 327 315 303 291 282 275 271 269 267 265 265 267 268 270 271 273 275 279 283 287 291 292 289 286 283 278 274 273 272 271 270 271 271 268 264 262 263 264 264 265 267 268 267 265 266 266 265 265 266 265 264 265
358 352 350 3 13 6 355 350 347 346 347 349 349 347 345 345 347 351 357 358 356 355 353 352 354 353 350 348 346 345 343 338 334 328 318 308 298 291 285 281 278 275 273 273 272 272 273 274 277 280 283 286 289 293 293 290 287 284 279 277 278 278 277 276 274 270 268 267 270 272 272 270 269 267 265 265 265 266 268 268 268 268 267 269 270
351 348 2 21 20 1 347 346 348 350 354 356 357 358 359 1 2 3 1 357 352 350 350 349 350 350 348 345 341 339 336 333 329 323 315 308 301 296 293 289 285 281 278 277 275 274 275 278 281 282 283 285 289 292 292 289 286 284 280 280 285 287 287 285 279 273 271 273 277 278 276 274 272 269 268 267 267 268 270 271 271 271 272 273 273
356 13 30 31 11 351 343 347 352 356 360 1 1 3 3 2 360 358 355 352 349 348 349 349 348 347 346 342 338 334 331 327 323 315 309 306 301 298 295 291 287 283 279 277 276 276 278 280 282 282 282 285 289 291 290 289 287 284 283 286 291 293 290 286 279 273 272 274 278 280 277 273 270 270 270 268 265 266 267 266 267 269 271 272 273
19 40 38 14 355 347 347 351 354 359 2 2 3 3 358 353 352 352 352 350 350 350 350 348 346 344 342 341 337 333 328 325 320 312 308 305 301 298 295 291 287 283 281 280 279 280 281 282 283 283 284 287 290 292 292 291 289 286 287 291 293 290 285 282 279 276 276 277 279 279 277 274 271 271 271 268 263 262 262 263 264 266 267 268 270
38 43 18 358 348 348 353 353 352 357 1 1 360 357 354 351 350 353 354 354 353 352 349 345 342 340 338 337 334 330 326 322 317 313 309 306 303 300 296 292 288 285 283 283 284 284 284 284 284 286 288 289 291 294 296 294 292 290 289 291 291 287 286 284 283 282 281 280 281 279 275 274 272 270 268 265 262 261 262 262 263 265 266 268 271
50 27 2 352 349 352 356 353 351 356 359 357 353 351 352 351 351 354 355 355 353 349 345 340 337 335 333 332 331 328 324 321 316 313 311 307 304 301 298 295 292 289 288 288 287 285 284 286 286 288 289 289 291 295 297 297 295 291 289 289 287 286 285 284 283 283 282 281 282 280 274 270 267 266 265 262 263 264 263 263 266 268 268 271 277
41 4 351 350 352 354 354 353 354 354 352 349 346 347 349 348 349 351 351 351 348 341 338 334 330 329 328 327 327 325 322 320 317 314 312 308 305 304 301 298 296 293 291 289 287 285 285 286 287 288 289 289 291 295 298 298 296 291 287 286 286 284 283 281 281 280 278 278 278 275 273 271 268 268 267 267 268 268 266 268 270 269 269 273 274
20 354 352 350 351 353 352 352 355 348 343 342 341 343 346 345 345 345 345 344 339 333 331 328 325 325 324 324 325 324 322 321 319 317 313 310 307 305 302 300 298 295 292 289 287 286 285 286 287 288 289 290 292 295 296 297 295 290 287 286 285 283 280 278 278 277 275 274 272 272 275 275 270 268 268 270 271 271 272 275 274 272 273 272 262
354 354 357 349 346 350 346 343 347 341 335 335 337 339 341 340 337 337 337 334 331 328 327 323 322 322 321 322 323 322 321 321 320 318 314 311 309 307 303 301 299 296 293 289 288 287 286 287 289 290 291 292 294 295 296 295 294 290 286 284 282 280 278 275 273 273 272 272 271 272 273 269 261 259 265 269 271 273 277 280 277 276 281 273 251
350 353 353 345 341 341 335 332 337 336 333 335 338 338 338 335 331 331 330 327 324 325 323 320 320 319 319 320 320 319 319 318 317 317 313 310 309 307 304 302 299 296 293 289 288 288 287 288 290 293 295 296 296 296 297 297 296 293 287 283 279 277 277 277 276 274 272 272 272 271 266 260 257 262 267 270 272 276 282 285 281 285 294 292 296
349 345 341 342 336 328 325 327 333 337 338 340 343 339 334 332 330 329 328 325 324 324 322 320 320 318 318 320 318 317 317 315 314 314 311 308 308 307 305 302 300 296 292 288 289 289 287 287 291 294 297 298 298 300 301 299 298 296 292 288 285 282 280 282 284 282 278 278 279 276 273 269 267 268 269 272 277 285 294 295 292 294 294 293 298
335 329 326 334 332 325 322 324 332 340 339 339 343 338 331 329 329 328 326 324 324 324 323 324 324 323 323 323 320 318 317 315 314 313 310 309 309 307 304 302 301 297 291 287 287 288 286 286 287 290 294 298 301 302 302 301 300 299 297 294 290 287 284 284 286 284 282 282 281 279 277 275 272 272 276 282 287 291 294 293 289 286 286 291 297
316 312 315 324 329 328 325 324 330 338 337 335 336 332 327 326 326 325 324 323 324 324 325 328 329 330 330 328 325 323 321 320 319 317 313 310 308 305 303 301 298 294 289 286 285 284 284 283 282 285 290 295 300 302 301 301 302 301 299 295 291 289 285 283 284 283 282 283 281 278 277 276 277 280 284 287 288 288 287 285 280 279 284 290 294
301 302 310 320 327 330 327 322 323 330 334 331 329 329 328 324 324 326 325 324 325 326 327 328 330 330 330 330 329 327 325 324 323 320 317 314 311 307 302 297 294 292 289 286 284 283 281 278 278 282 286 290 294 296 296 298 300 299 296 293 291 289 287 286 286 286 285 284 282 280 278 277 277 278 278 277 275 273 272 273 274 277 281 284 287
294 293 301 313 321 324 321 316 318 324 328 326 326 330 330 325 325 328 327 326 327 329 328 327 328 327 326 327 327 326 325 323 322 320 318 314 312 309 302 295 293 291 286 284 283 281 279 278 278 280 282 283 285 287 290 295 298 296 293 290 288 287 286 286 287 288 288 286 284 282 279 277 275 274 273 270 266 264 265 269 271 274 276 279 283
288 287 293 305 316 318 316 313 315 320 321 321 324 329 330 327 327 328 328 327 328 329 328 327 327 325 324 325 325 324 323 322 320 319 317 313 310 308 303 298 297 295 290 286 282 279 280 281 278 276 276 272 273 282 292 296 293 289 286 283 281 282 283 283 283 285 284 281 278 275 273 272 270 269 268 266 264 263 265 266 267 269 272 276 279
279 283 290 302 312 314 311 311 314 316 316 317 320 325 330 329 328 326 325 324 325 326 325 325 325 323 321 322 322 322 323 322 319 318 317 314 311 308 300 291 290 291 289 283 277 275 278 280 277 278 279 276 276 285 293 290 283 282 283 282 280 280 280 280 280 278 274 268 264 261 260 259 260 259 259 260 261 262 262 262 264 267 270 273 275
278 281 292 306 314 313 309 311 314 314 311 312 315 320 328 329 326 323 320 318 319 320 320 321 322 321 319 319 319 320 322 322 320 319 317 315 314 312 307 298 289 284 281 280 278 278 281 282 283 287 291 289 286 289 288 281 281 284 286 287 286 284 284 283 279 274 266 260 255 253 251 251 251 251 251 254 257 258 259 262 266 268 268 269 271